ANA471 RJTT-ROAH

Flight info

Callsign ANA471
Flight time N/A
Altitude 40000
Route LAXAS Y56 TOHME Y54 KOHWA Y12 AYANO Y128 LAXEL Y52 TONAR Y525 IHEYA
Aircraft B77W/H-SDE1E2E3FGHIJ2J3J5M1P2RWY/LB1D1

Departure

Time N/A
Airport Tokyo Haneda International Airport (RJTT)

Arrival

Time 2026-04-21 12:36
Airport Naha International Airport (ROAH)
Time Latitude Longitude Altitude Speed Heading
2026-04-21 10:47 34.33772 136.61991 40060 ft 407 kts 227°
2026-04-21 10:48 34.31512 136.59923 40039 ft 407 kts 227°
2026-04-21 10:48 34.27031 136.55765 40036 ft 405 kts 227°
2026-04-21 10:49 34.22588 136.51579 40053 ft 405 kts 227°
2026-04-21 10:49 34.18151 136.47405 40055 ft 404 kts 227°
2026-04-21 10:50 34.13706 136.43241 40055 ft 404 kts 227°
2026-04-21 10:50 34.09190 136.39233 40058 ft 410 kts 223°
2026-04-21 10:51 34.04109 136.35895 40035 ft 418 kts 218°
2026-04-21 10:51 33.98953 136.32671 40048 ft 418 kts 218°
2026-04-21 10:52 33.93791 136.29423 40056 ft 419 kts 218°
2026-04-21 10:52 33.88609 136.26160 40056 ft 421 kts 218°
2026-04-21 10:53 33.83413 136.22892 40055 ft 422 kts 218°
2026-04-21 10:53 33.78207 136.19623 40052 ft 423 kts 218°
2026-04-21 10:54 33.72995 136.16355 40033 ft 423 kts 218°
2026-04-21 10:54 33.67768 136.13081 40050 ft 424 kts 218°
2026-04-21 10:55 33.62537 136.09809 40051 ft 425 kts 218°
2026-04-21 10:55 33.57291 136.06533 40053 ft 426 kts 218°
2026-04-21 10:56 33.52037 136.03256 40055 ft 426 kts 218°
2026-04-21 10:56 33.46773 135.99978 40045 ft 426 kts 218°
2026-04-21 10:57 33.41511 135.96705 40034 ft 426 kts 218°
2026-04-21 10:57 33.36243 135.93433 40049 ft 427 kts 218°
2026-04-21 10:58 33.30966 135.90160 40053 ft 427 kts 218°
2026-04-21 10:58 33.25685 135.86888 40052 ft 428 kts 218°
2026-04-21 10:59 33.20438 135.83642 40051 ft 428 kts 217°
2026-04-21 10:59 33.15116 135.80356 40051 ft 428 kts 217°
2026-04-21 11:00 33.09827 135.77093 40056 ft 428 kts 217°
2026-04-21 11:00 33.04575 135.73855 40060 ft 428 kts 217°
2026-04-21 11:01 32.99285 135.70602 40059 ft 428 kts 217°
2026-04-21 11:01 32.93996 135.67354 40048 ft 427 kts 217°
2026-04-21 11:02 32.86079 135.62498 40054 ft 427 kts 217°
2026-04-21 11:02 32.80798 135.59264 40057 ft 427 kts 217°
2026-04-21 11:03 32.75521 135.56039 40051 ft 426 kts 217°
2026-04-21 11:03 32.70245 135.52816 40042 ft 426 kts 217°
2026-04-21 11:04 32.64967 135.49597 40062 ft 427 kts 217°
2026-04-21 11:04 32.59683 135.46378 40063 ft 427 kts 217°
2026-04-21 11:05 32.54396 135.43161 40066 ft 427 kts 217°
2026-04-21 11:05 32.49101 135.39945 40065 ft 428 kts 217°
2026-04-21 11:06 32.43803 135.36731 40033 ft 428 kts 216°
2026-04-21 11:06 32.38505 135.33521 40061 ft 428 kts 216°
2026-04-21 11:07 32.33197 135.30309 40073 ft 429 kts 216°
2026-04-21 11:07 32.27870 135.27090 40072 ft 430 kts 216°
2026-04-21 11:08 32.22534 135.23870 40073 ft 431 kts 216°
2026-04-21 11:08 32.17192 135.20649 40055 ft 431 kts 216°
2026-04-21 11:09 32.11951 135.17291 40074 ft 423 kts 223°
2026-04-21 11:09 32.07527 135.12894 40083 ft 412 kts 232°
2026-04-21 11:10 32.03903 135.07762 40080 ft 406 kts 239°
2026-04-21 11:10 32.00478 135.02457 40075 ft 407 kts 239°
2026-04-21 11:11 31.97060 134.97184 40076 ft 408 kts 238°
2026-04-21 11:11 31.93575 134.91844 40073 ft 409 kts 238°
2026-04-21 11:12 31.90101 134.86541 40067 ft 409 kts 238°
2026-04-21 11:12 31.86622 134.81243 40076 ft 410 kts 238°
2026-04-21 11:13 31.83157 134.75973 40074 ft 410 kts 238°
2026-04-21 11:13 31.79666 134.70671 40074 ft 410 kts 238°
2026-04-21 11:14 31.76173 134.65374 40073 ft 410 kts 238°
2026-04-21 11:14 31.72677 134.60079 40086 ft 410 kts 238°
2026-04-21 11:15 31.69179 134.54787 40056 ft 410 kts 238°
2026-04-21 11:15 31.65684 134.49509 40071 ft 409 kts 238°
2026-04-21 11:16 31.62188 134.44235 40078 ft 409 kts 238°
2026-04-21 11:16 31.58688 134.38962 40080 ft 409 kts 238°
2026-04-21 11:17 31.55186 134.33694 40072 ft 410 kts 238°
2026-04-21 11:17 31.51680 134.28427 40081 ft 410 kts 238°
2026-04-21 11:18 31.48187 134.23185 40077 ft 411 kts 238°
2026-04-21 11:18 31.44667 134.17913 40064 ft 411 kts 238°
2026-04-21 11:19 31.41141 134.12637 40077 ft 412 kts 238°
2026-04-21 11:19 31.37607 134.07357 40077 ft 412 kts 238°
2026-04-21 11:20 31.34071 134.02081 40091 ft 412 kts 238°
2026-04-21 11:20 31.30530 133.96805 40073 ft 412 kts 237°
2026-04-21 11:21 31.26989 133.91535 40080 ft 412 kts 237°
2026-04-21 11:21 31.23445 133.86268 40081 ft 412 kts 237°
2026-04-21 11:22 31.19903 133.81011 40071 ft 412 kts 237°
2026-04-21 11:22 31.16357 133.75756 40087 ft 412 kts 237°
2026-04-21 11:23 31.12813 133.70510 40085 ft 411 kts 237°
2026-04-21 11:23 31.09269 133.65270 40086 ft 411 kts 237°
2026-04-21 11:24 31.05747 133.60068 40087 ft 411 kts 237°
2026-04-21 11:24 31.02201 133.54841 40083 ft 411 kts 237°
2026-04-21 11:25 30.98652 133.49615 40082 ft 411 kts 237°
2026-04-21 11:25 30.95103 133.44390 40069 ft 411 kts 236°
2026-04-21 11:26 30.91559 133.39180 40084 ft 410 kts 237°
2026-04-21 11:26 30.88014 133.33976 40084 ft 410 kts 237°
2026-04-21 11:27 30.84472 133.28781 40082 ft 410 kts 237°
2026-04-21 11:27 30.80927 133.23589 40077 ft 409 kts 236°
2026-04-21 11:28 30.77383 133.18406 40082 ft 409 kts 236°
2026-04-21 11:28 30.73836 133.13226 40082 ft 409 kts 236°
2026-04-21 11:29 30.70290 133.08052 40063 ft 409 kts 236°
2026-04-21 11:29 30.66736 133.02874 40079 ft 410 kts 236°
2026-04-21 11:30 30.63173 132.97692 40084 ft 411 kts 236°
2026-04-21 11:30 30.60208 132.93384 40078 ft 411 kts 236°
2026-04-21 11:31 30.56037 132.87330 40077 ft 411 kts 236°
2026-04-21 11:31 30.52465 132.82154 40070 ft 411 kts 235°
2026-04-21 11:32 30.49498 132.77859 40073 ft 411 kts 235°
2026-04-21 11:32 30.45925 132.72694 40073 ft 410 kts 235°
2026-04-21 11:33 30.42350 132.67533 40066 ft 411 kts 235°
2026-04-21 11:33 30.38766 132.62364 40072 ft 412 kts 235°
2026-04-21 11:34 30.35168 132.57181 40073 ft 414 kts 235°
2026-04-21 11:34 30.31555 132.51986 40056 ft 415 kts 235°
2026-04-21 11:35 30.27934 132.46785 40064 ft 415 kts 235°
2026-04-21 11:35 30.24336 132.41624 40069 ft 415 kts 235°
2026-04-21 11:36 30.20709 132.36429 40070 ft 415 kts 235°
2026-04-21 11:36 30.17077 132.31233 40051 ft 415 kts 235°
2026-04-21 11:37 30.13432 132.26025 40060 ft 414 kts 235°
2026-04-21 11:37 30.09835 132.20892 40065 ft 413 kts 235°
2026-04-21 11:38 30.06217 132.15735 40069 ft 413 kts 235°
2026-04-21 11:38 30.02600 132.10586 40055 ft 413 kts 234°
2026-04-21 11:39 29.98981 132.05442 40064 ft 413 kts 234°
2026-04-21 11:39 29.95362 132.00303 40066 ft 413 kts 234°
2026-04-21 11:40 29.91740 131.95167 40070 ft 413 kts 234°
2026-04-21 11:40 29.88110 131.90025 40060 ft 413 kts 234°
2026-04-21 11:41 29.84480 131.84889 40066 ft 414 kts 234°
2026-04-21 11:41 29.80833 131.79754 40066 ft 414 kts 233°
2026-04-21 11:42 29.77107 131.74694 40073 ft 415 kts 233°
2026-04-21 11:42 29.73351 131.69649 40063 ft 415 kts 232°
2026-04-21 11:43 29.69597 131.64596 40063 ft 415 kts 232°
2026-04-21 11:43 29.65851 131.59549 40063 ft 415 kts 232°
2026-04-21 11:44 29.62099 131.54493 40047 ft 415 kts 232°
2026-04-21 11:44 29.58346 131.49441 40075 ft 416 kts 232°
2026-04-21 11:45 29.54592 131.44394 40063 ft 416 kts 232°
2026-04-21 11:45 29.50826 131.39339 40064 ft 416 kts 232°
2026-04-21 11:46 29.47059 131.34289 40053 ft 417 kts 232°
2026-04-21 11:46 29.43283 131.29231 40065 ft 418 kts 232°
2026-04-21 11:47 29.39494 131.24164 40070 ft 419 kts 232°
2026-04-21 11:47 29.35699 131.19094 40069 ft 419 kts 232°
2026-04-21 11:48 29.31892 131.14015 40062 ft 420 kts 232°
2026-04-21 11:48 29.28075 131.08931 40071 ft 422 kts 232°
2026-04-21 11:49 29.24244 131.03831 40067 ft 422 kts 232°
2026-04-21 11:49 29.20413 130.98740 40068 ft 422 kts 232°
2026-04-21 11:50 29.16601 130.93679 40067 ft 422 kts 232°
2026-04-21 11:50 29.12773 130.88605 40074 ft 421 kts 232°
2026-04-21 11:51 29.08945 130.83536 40069 ft 420 kts 232°
2026-04-21 11:51 29.05131 130.78492 40068 ft 419 kts 232°
2026-04-21 11:52 29.01307 130.73440 40062 ft 421 kts 232°
2026-04-21 11:52 28.97464 130.68369 40071 ft 424 kts 232°
2026-04-21 11:53 28.93587 130.63261 40072 ft 427 kts 232°
2026-04-21 11:53 28.89689 130.58132 40067 ft 429 kts 232°
2026-04-21 11:54 28.85771 130.52983 40065 ft 431 kts 232°
2026-04-21 11:54 28.81834 130.47814 40068 ft 432 kts 232°
2026-04-21 11:55 28.77882 130.42634 40065 ft 433 kts 232°
2026-04-21 11:55 28.73931 130.37461 40039 ft 433 kts 232°
2026-04-21 11:56 28.69984 130.32299 40053 ft 431 kts 232°
2026-04-21 11:56 28.66045 130.27156 40059 ft 430 kts 232°
2026-04-21 11:57 28.62137 130.22058 40067 ft 430 kts 232°
2026-04-21 11:57 28.58209 130.16940 40041 ft 429 kts 232°
2026-04-21 11:58 28.54287 130.11836 40047 ft 429 kts 232°
2026-04-21 11:58 28.50358 130.06729 40043 ft 429 kts 232°
2026-04-21 11:59 28.46425 130.01623 40041 ft 430 kts 232°
2026-04-21 11:59 28.42479 129.96508 40011 ft 430 kts 231°
2026-04-21 12:00 28.38532 129.91398 40024 ft 430 kts 231°
2026-04-21 12:00 28.34587 129.86295 40023 ft 430 kts 231°
2026-04-21 12:01 28.30638 129.81194 40025 ft 430 kts 231°
2026-04-21 12:01 28.26689 129.76099 40021 ft 430 kts 231°
2026-04-21 12:02 28.20792 129.68502 40041 ft 429 kts 231°
2026-04-21 12:03 28.16850 129.63432 40055 ft 429 kts 231°
2026-04-21 12:03 28.12907 129.58367 40064 ft 428 kts 231°
2026-04-21 12:04 28.08962 129.53305 40062 ft 428 kts 231°
2026-04-21 12:04 28.04992 129.48217 40063 ft 428 kts 231°
2026-04-21 12:05 28.01078 129.43206 40062 ft 428 kts 231°
2026-04-21 12:05 27.97132 129.38161 40062 ft 428 kts 231°
2026-04-21 12:06 27.93181 129.33115 40063 ft 428 kts 231°
2026-04-21 12:06 27.89229 129.28074 40068 ft 429 kts 231°
2026-04-21 12:07 27.85269 129.23028 40065 ft 429 kts 231°
2026-04-21 12:07 27.81301 129.17977 40067 ft 430 kts 231°
2026-04-21 12:08 27.77330 129.12930 40051 ft 430 kts 231°
2026-04-21 12:08 27.73352 129.07879 40064 ft 431 kts 231°
2026-04-21 12:09 27.69368 129.02828 40069 ft 431 kts 231°
2026-04-21 12:09 27.65377 128.97773 40060 ft 432 kts 231°
2026-04-21 12:10 27.61378 128.92711 40050 ft 432 kts 231°
2026-04-21 12:10 27.57377 128.87653 39958 ft 434 kts 231°
2026-04-21 12:10 27.55364 128.85106 39299 ft 444 kts 231°
2026-04-21 12:11 27.53309 128.82512 38700 ft 443 kts 231°
2026-04-21 12:11 27.51255 128.79922 37926 ft 443 kts 230°
2026-04-21 12:11 27.49214 128.77351 37400 ft 438 kts 230°
2026-04-21 12:11 27.47191 128.74803 36926 ft 434 kts 230°
2026-04-21 12:12 27.45195 128.72288 36444 ft 429 kts 231°
2026-04-21 12:12 27.43330 128.69700 36001 ft 423 kts 235°
2026-04-21 12:12 27.41700 128.66972 35563 ft 418 kts 240°
2026-04-21 12:12 27.40251 128.64157 35102 ft 415 kts 241°
2026-04-21 12:13 27.38800 128.61361 34641 ft 412 kts 241°
2026-04-21 12:13 27.37352 128.58589 34175 ft 410 kts 240°
2026-04-21 12:13 27.35905 128.55831 33665 ft 408 kts 240°
2026-04-21 12:13 27.34462 128.53089 33159 ft 406 kts 240°
2026-04-21 12:14 27.33031 128.50372 32698 ft 403 kts 240°
2026-04-21 12:14 27.31606 128.47667 32226 ft 400 kts 240°
2026-04-21 12:14 27.30194 128.44990 31778 ft 397 kts 240°
2026-04-21 12:14 27.28789 128.42326 31321 ft 394 kts 240°
2026-04-21 12:15 27.27392 128.39679 30884 ft 392 kts 240°
2026-04-21 12:15 27.26005 128.37052 30435 ft 390 kts 240°
2026-04-21 12:15 27.24622 128.34436 29954 ft 389 kts 240°
2026-04-21 12:15 27.23245 128.31831 29406 ft 387 kts 240°
2026-04-21 12:16 27.21871 128.29232 28902 ft 386 kts 240°
2026-04-21 12:16 27.20505 128.26652 28401 ft 384 kts 240°
2026-04-21 12:16 27.19143 128.24080 27912 ft 382 kts 240°
2026-04-21 12:16 27.17786 128.21519 27427 ft 380 kts 240°
2026-04-21 12:17 27.16437 128.18974 26948 ft 379 kts 240°
2026-04-21 12:17 27.15090 128.16434 26473 ft 378 kts 240°
2026-04-21 12:17 27.13748 128.13905 26020 ft 376 kts 240°
2026-04-21 12:17 27.12409 128.11386 25543 ft 376 kts 240°
2026-04-21 12:18 27.11069 128.08872 25067 ft 376 kts 240°
2026-04-21 12:18 27.09724 128.06363 24575 ft 376 kts 240°
2026-04-21 12:18 27.08379 128.03856 24117 ft 375 kts 240°
2026-04-21 12:18 27.07485 128.02191 23794 ft 375 kts 240°
2026-04-21 12:19 27.05686 127.98838 23110 ft 374 kts 240°
2026-04-21 12:19 27.04347 127.96345 22607 ft 373 kts 240°
2026-04-21 12:19 27.03452 127.94712 22309 ft 366 kts 237°
2026-04-21 12:19 27.01712 127.92655 21836 ft 366 kts 218°
2026-04-21 12:20 26.98671 127.90935 21309 ft 368 kts 202°
2026-04-21 12:20 26.96163 127.90333 20884 ft 370 kts 187°
2026-04-21 12:20 26.94466 127.90334 20627 ft 368 kts 183°
2026-04-21 12:20 26.91910 127.90435 20213 ft 367 kts 182°
2026-04-21 12:21 26.89365 127.90552 19804 ft 365 kts 182°
2026-04-21 12:21 26.86826 127.90663 19399 ft 364 kts 182°
2026-04-21 12:21 26.84296 127.90763 18955 ft 364 kts 182°
2026-04-21 12:21 26.81764 127.90854 18531 ft 364 kts 182°
2026-04-21 12:22 26.79236 127.90937 18074 ft 363 kts 182°
2026-04-21 12:22 26.76715 127.91015 17589 ft 362 kts 181°
2026-04-21 12:22 26.74204 127.91091 17167 ft 360 kts 181°
2026-04-21 12:22 26.71700 127.91165 16728 ft 359 kts 181°
2026-04-21 12:23 26.69208 127.91239 16293 ft 357 kts 181°
2026-04-21 12:23 26.66730 127.91311 15859 ft 356 kts 181°
2026-04-21 12:23 26.64256 127.91384 15428 ft 355 kts 181°
2026-04-21 12:23 26.61795 127.91455 15002 ft 354 kts 181°
2026-04-21 12:24 26.59337 127.91526 14570 ft 353 kts 181°
2026-04-21 12:24 26.56884 127.91597 14132 ft 352 kts 181°
2026-04-21 12:24 26.54437 127.91668 13666 ft 352 kts 181°
2026-04-21 12:24 26.51995 127.91739 13196 ft 350 kts 181°
2026-04-21 12:25 26.49565 127.91810 12738 ft 348 kts 181°
2026-04-21 12:25 26.47148 127.91881 12308 ft 347 kts 181°
2026-04-21 12:25 26.44742 127.91952 11870 ft 345 kts 181°
2026-04-21 12:25 26.42351 127.92021 11427 ft 344 kts 181°
2026-04-21 12:26 26.39982 127.92053 11104 ft 331 kts 186°
2026-04-21 12:26 26.37790 127.91475 10787 ft 318 kts 207°
2026-04-21 12:26 26.35830 127.90400 10400 ft 313 kts 208°
2026-04-21 12:26 26.33865 127.89363 10032 ft 311 kts 207°
2026-04-21 12:27 26.31950 127.88376 9754 ft 298 kts 207°
2026-04-21 12:27 26.30089 127.87422 9602 ft 290 kts 207°
2026-04-21 12:27 26.28290 127.86503 9361 ft 277 kts 206°
2026-04-21 12:27 26.26562 127.85619 8790 ft 271 kts 206°
2026-04-21 12:28 26.24874 127.84755 8156 ft 269 kts 206°
2026-04-21 12:28 26.23169 127.83882 7625 ft 272 kts 205°
2026-04-21 12:28 26.21443 127.83000 7246 ft 274 kts 204°
2026-04-21 12:28 26.19700 127.82111 6871 ft 277 kts 204°
2026-04-21 12:29 26.17939 127.81213 6495 ft 280 kts 202°
2026-04-21 12:29 26.16160 127.80309 6081 ft 282 kts 202°
2026-04-21 12:29 26.14370 127.79398 5700 ft 284 kts 203°
2026-04-21 12:29 26.12578 127.78486 5354 ft 283 kts 203°
2026-04-21 12:30 26.10790 127.77574 5051 ft 282 kts 203°
2026-04-21 12:30 26.09005 127.76665 4783 ft 280 kts 203°
2026-04-21 12:30 26.07253 127.75769 4522 ft 274 kts 205°
2026-04-21 12:30 26.05728 127.74492 3849 ft 282 kts 233°
2026-04-21 12:31 26.05026 127.72530 3454 ft 267 kts 264°
2026-04-21 12:31 26.04946 127.70541 3060 ft 249 kts 268°
2026-04-21 12:31 26.04879 127.68683 2706 ft 233 kts 267°
2026-04-21 12:31 26.04809 127.66924 2402 ft 228 kts 267°
2026-04-21 12:32 26.04913 127.65179 2106 ft 224 kts 293°
2026-04-21 12:32 26.05878 127.63928 2058 ft 215 kts 335°
2026-04-21 12:32 26.07275 127.63601 2008 ft 198 kts
2026-04-21 12:32 26.08621 127.63728 1840 ft 192 kts
2026-04-21 12:33 26.09897 127.63728 1589 ft 177 kts
2026-04-21 12:33 26.11066 127.63672 1346 ft 158 kts
2026-04-21 12:33 26.12100 127.63623 1136 ft 143 kts
2026-04-21 12:33 26.13086 127.63578 967 ft 142 kts
2026-04-21 12:34 26.14078 127.63534 797 ft 143 kts
2026-04-21 12:34 26.15081 127.63485 626 ft 145 kts
2026-04-21 12:34 26.16093 127.63439 409 ft 144 kts
2026-04-21 12:34 26.17090 127.63393 220 ft 143 kts
2026-04-21 12:35 26.18091 127.63343 44 ft 146 kts 360°
2026-04-21 12:35 26.19023 127.63301 19 ft 116 kts 358°
2026-04-21 12:35 26.19670 127.63271 25 ft 68 kts 358°
2026-04-21 12:35 26.20072 127.63252 25 ft 52 kts 357°
2026-04-21 12:36 26.20265 127.63252 22 ft 14 kts 23°
2026-04-21 12:36 26.20295 127.63340 24 ft 11 kts 85°
2026-04-21 12:36 26.20299 127.63417 24 ft 9 kts 87°
2026-04-21 12:36 26.20302 127.63488 22 ft 9 kts 87°
2026-04-21 12:37 26.20305 127.63559 23 ft 10 kts 88°
2026-04-21 12:37 26.20309 127.63678 23 ft 18 kts 88°
2026-04-21 12:37 26.20313 127.63814 23 ft 18 kts 88°
2026-04-21 12:37 26.20319 127.63955 25 ft 21 kts 88°
2026-04-21 12:38 26.20326 127.64132 23 ft 23 kts 88°
2026-04-21 12:38 26.20339 127.64295 24 ft 17 kts 60°
2026-04-21 12:38 26.20445 127.64313 23 ft 16 kts 357°
2026-04-21 12:38 26.20558 127.64311 23 ft 16 kts
2026-04-21 12:39 26.20667 127.64337 23 ft 16 kts 12°
2026-04-21 12:39 26.20775 127.64364 23 ft 16 kts 12°
2026-04-21 12:39 26.20869 127.64389 23 ft 11 kts 19°
2026-04-21 12:39 26.20921 127.64442 24 ft 10 kts 62°
2026-04-21 12:40 26.20930 127.64518 24 ft 10 kts 110°
2026-04-21 12:40 26.20903 127.64592 24 ft 10 kts 105°
2026-04-21 12:40 26.20903 127.64672 21 ft 10 kts 86°
2026-04-21 12:40 26.20909 127.64752 26 ft 10 kts 84°
2026-04-21 12:41 26.20916 127.64830 24 ft 8 kts 80°
2026-04-21 12:41 26.20907 127.64879 29 ft 7 kts 148°
2026-04-21 12:41 26.20873 127.64897 28 ft 5 kts 156°
2026-04-21 12:41 26.20848 127.64909 30 ft 3 kts 157°
2026-04-21 12:42 26.20839 127.64913 31 ft 0 kts 157°